Tracking 32936 objects as of 16-Jan-2026
HD Live streaming from Space Station
objects crossing your sky now

STARLINK-1321

Track STARLINK-1321 now!
10-day predictions
STARLINK-1321 is classified as:


NORAD ID: 45573
Int'l Code: 2020-025AU
Perigee: 451.4 km
Apogee: 455.3 km
Inclination: 53.1 °
Period: 93.5 minutes
Semi major axis: 6824 km
RCS: Unknown
Launch date: April 22, 2020
Source: United States (US)
Launch site: AIR FORCE EASTERN TEST RANGE (AFETR)
Your satellite tracking list
Your tracking list is empty




NASA's NSSDC Master Catalog

Two Line Element Set (TLE):
1 45573U 20025AU  26015.80463792  .00036494  00000-0  90731-3 0  9995
2 45573  53.0555 309.9067 0002857  93.9264 266.2067 15.39971686317294
Source of the keplerian elements: AFSPC